[[{"header":{"parameterUnit":"m.s-1","parameterCategory":1,"la1":30.2991,"la2":30.254,"lo1":-89.0895,"lo2":-89.0444,"dy":0.0017,"dx":0.0017,"nx":28,"ny":28,"refTime":"2025-04-12T09:00:00:Z","depth":0,"parameterNumber":2,"parameterNumberName":"U-component_of_WINDS"},"data":[0,0,0,0,0,0,0,0,0,0,0,0,0,0,0,0,0,0,0,0,0,0,0,0,0,0,0,0,0,0,0,0,0,0,0,0,0,0,0,0,0,0,0,0,0,0,0,0,0,0,0,0,0,0,0,0,0,0,-0.8441,-0.8441,0,-0.8445,-0.8445,-0.8445,-0.8442,-0.8442,-0.8442,-0.8441,-0.8446,-0.8447,-0.8447,0,0,0,0,0,0,0,0,0,0,0,0,0,-0.8429,-0.843,-0.8441,-0.8441,-0.8441,-0.8445,-0.8445,-0.8445,-0.8442,-0.8442,-0.8442,-0.8441,-0.8446,-0.8447,-0.8447,0,0,0,0,0,0,0,0,0,0,0,0,0,-0.8434,-0.843,-0.8441,-0.844,-0.8439,-0.8445,-0.8445,-0.8445,-0.8442,-0.8442,-0.8441,-0.8441,-0.8446,-0.8447,-0.8447,-0.8454,0,0,-0.8448,-0.8448,0,0,0,0,0,0,0,0,-0.8434,-0.8435,-0.844,-0.844,-0.844,-0.8443,-0.8443,-0.8448,-0.8442,-0.8441,-0.8441,-0.8441,-0.8445,-0.8446,-0.8447,-0.8454,-0.8455,-0.8448,-0.8449,-0.8449,-0.8449,0,0,0,0,0,0,0,-0.8434,-0.8434,-0.8442,-0.844,-0.844,-0.8439,-0.844,-0.8444,-0.8444,-0.8441,-0.8441,-0.8441,-0.8445,-0.8447,-0.8447,-0.8455,-0.8448,-0.8449,-0.8449,-0.8449,-0.8469,-0.8469,0,0,0,0,0,0,-0.8433,-0.8434,-0.8442,-0.8443,-0.8436,-0.8439,-0.844,-0.8442,-0.8444,-0.8445,-0.8442,-0.8441,-0.8446,-0.8447,-0.8447,-0.8456,-0.8449,-0.8449,-0.8449,-0.8468,-0.8469,-0.8469,0,0,0,0,0,0,-0.8433,-0.8434,-0.8442,-0.8438,-0.8439,-0.844,-0.8442,-0.8442,-0.8444,-0.8445,-0.8445,-0.8443,-0.8446,-0.8447,-0.8453,-0.8456,-0.8449,-0.845,-0.8468,-0.8468,-0.8469,-0.8473,0,0,0,0,0,0,-0.8433,-0.8434,-0.8436,-0.8438,-0.844,-0.8447,-0.8442,-0.8442,-0.8444,-0.8444,-0.8446,-0.8446,-0.8446,-0.8452,-0.8453,-0.8457,-0.845,-0.8468,-0.8468,-0.8469,-0.8473,-0.8474,-0.8475,0,0,0,0,0,-0.8432,-0.8437,-0.8437,-0.8438,-0.8443,-0.8447,-0.8448,-0.8447,-0.8445,-0.8447,-0.8448,-0.8446,-0.8456,-0.8453,-0.8454,-0.8458,-0.8467,-0.8468,-0.8469,-0.8472,-0.8474,-0.8475,0,0,0,0,0,0,-0.8436,-0.8438,-0.8437,-0.8442,-0.8445,-0.8446,-0.845,-0.8448,-0.8451,-0.8451,-0.845,-0.8451,-0.8457,-0.8458,-0.8454,-0.8465,-0.8461,-0.8462,-0.8464,-0.8465,-0.8466,-0.8465,-0.845,0,0,0,0,0,-0.8437,-0.8441,-0.8442,-0.8447,-0.8448,-0.8449,-0.8451,-0.845,-0.8453,-0.8453,-0.8455,-0.8457,-0.8461,-0.8463,-0.8466,-0.8473,-0.8474,-0.8477,-0.8478,-0.8478,-0.8479,-0.8483,-0.8484,-0.8471,-0.8471,-0.8471,0,0,-0.844,-0.8442,-0.8444,-0.8448,-0.8449,-0.8453,-0.845,-0.8454,-0.8456,-0.8454,-0.8459,-0.8461,-0.8463,-0.847,-0.8473,-0.8471,-0.8483,-0.8479,-0.848,-0.848,-0.8484,-0.8485,-0.8486,-0.8471,-0.8471,-0.8471,0,0,-0.8447,-0.8449,-0.8453,-0.8455,-0.8457,-0.8458,-0.8459,-0.8461,-0.8462,-0.8468,-0.8466,-0.847,-0.8476,-0.8478,-0.848,-0.8489,-0.8487,-0.849,-0.8495,-0.8499,-0.85,-0.8501,-0.8504,-0.8505,-0.8491,-0.8491,-0.8491,0,-0.845,-0.8455,-0.8455,-0.846,-0.8462,-0.846,-0.8465,-0.8467,-0.847,-0.8472,-0.847,-0.8478,-0.848,-0.8487,-0.8489,-0.8491,-0.8492,-0.8489,-0.85,-0.8501,-0.8501,-0.8504,-0.8506,-0.8491,-0.8491,-0.8491,-0.8491,0,-0.8459,-0.8463,-0.8466,-0.847,-0.8473,-0.8477,-0.8478,-0.8481,-0.848,-0.8481,-0.8487,-0.849,-0.8493,-0.8495,-0.8495,-0.8503,-0.8501,-0.85,-0.8496,-0.8503,-0.8506,-0.8507,-0.8492,-0.8492,-0.8492,-0.8491,0,0,-0.8467,-0.8472,-0.8473,-0.8474,-0.8478,-0.8481,-0.8486,-0.849,-0.8492,-0.8495,-0.8499,-0.8505,-0.8503,-0.8506,-0.8506,-0.8509,-0.8517,-0.8507,-0.8507,-0.8509,-0.8525,-0.8526,-0.8527,-0.8516,-0.8516,-0.8516,-0.8525,0,-0.8474,-0.8482,-0.8483,-0.849,-0.8493,-0.8493,-0.8497,-0.85,-0.8501,-0.8505,-0.8506,-0.851,-0.8508,-0.851,-0.8513,-0.8515,-0.852,-0.8514,-0.852,-0.852,-0.8518,-0.8529,-0.8529,-0.8537,-0.8526,-0.8526,-0.8526,0,-0.8483,-0.8486,-0.8494,-0.8497,-0.8499,-0.8502,-0.8506,-0.851,-0.8513,-0.8514,-0.8517,-0.8517,-0.8522,-0.8519,-0.8526,-0.8523,-0.8525,-0.8527,-0.8527,-0.8527,-0.8523,-0.8528,-0.8539,-0.854,-0.8528,-0.8528,-0.8528,0,-0.8488,-0.8494,-0.85,-0.8501,-0.8505,-0.8508,-0.851,-0.8513,-0.8516,-0.8519,-0.8521,-0.8526,-0.8528,-0.8532,-0.8533,-0.853,-0.854,-0.8537,-0.8541,-0.8541,-0.8542,-0.8542,-0.8553,-0.8545,-0.8545,-0.8545,-0.8545,0,-0.8495,-0.8499,-0.8502,-0.8505,-0.851,-0.8511,-0.8517,-0.8519,-0.8522,-0.8525,-0.8526,-0.8529,-0.8531,-0.8535,-0.8537,-0.8543,-0.8544,-0.8545,-0.8545,-0.8544,-0.8544,-0.8545,-0.8544,-0.8545,-0.8545,-0.8545,-0.8545,0,-0.8501,-0.8502,-0.8508,-0.8512,-0.8513,-0.8517,-0.852,-0.8523,-0.8525,-0.853,-0.8531,-0.8534,-0.8539,-0.8541,-0.8547,-0.8548,-0.8555,-0.8555,-0.8553,-0.8553,-0.8557,-0.8556,-0.8569,-0.8571,-0.8562,-0.8562,-0.8562,0,-0.8505,-0.8508,-0.8512,-0.8515,-0.8517,-0.8521,-0.8524,-0.8525,-0.8528,-0.8533,-0.8536,-0.8541,-0.8545,-0.8553,-0.8556,-0.8561,-0.856,-0.8565,-0.8561,-0.8561,-0.856,-0.8559,-0.856,-0.8565,-0.8565,-0.8565,-0.8565,0,-0.8512,-0.8513,-0.8516,-0.8521,-0.8524,-0.8527,-0.8531,-0.8533,-0.8535,-0.8539,-0.8544,-0.8547,-0.8554,-0.8559,-0.8564,-0.8566,-0.8566,-0.8566,-0.8567,-0.8566,-0.8565,-0.8566,-0.8555,-0.8566,-0.8566,-0.8566,-0.8566,-0.8566,-0.8516,-0.852,-0.8523,-0.8528,-0.853,-0.8534,-0.8537,-0.854,-0.8544,-0.8549,-0.855,-0.8556,-0.856,-0.8567,-0.8569,-0.8574,-0.8573,-0.8575,-0.8575,-0.8575,-0.8575,-0.8565,-0.8575,-0.8575,-0.8575,-0.8575,-0.8575,0,-0.8523,-0.8526,-0.853,-0.8535,-0.8538,-0.8538,-0.8542,-0.8545,-0.855,-0.8554,-0.8558,-0.8564,-0.8569,-0.8573,-0.8578,-0.8581,-0.8581,-0.8583,-0.8582,-0.8583,-0.8576,-0.8574,-0.8582,-0.8582,-0.8582,-0.8582,-0.8582,-0.8582,-0.8527,-0.8532,-0.8534,-0.8541,-0.8544,-0.8549,-0.8551,-0.8554,-0.8558,-0.8564,-0.8569,-0.8571,-0.8575,-0.8581,-0.8585,-0.8586,-0.8588,-0.8589,-0.859,-0.8584,-0.8583,-0.8582,-0.8581,-0.859,-0.859,-0.8596,-0.8596,-0.8596]},{"header":{"parameterUnit":"m.s-1","parameterCategory":1,"la1":30.2991,"la2":30.254,"lo1":-89.0895,"lo2":-89.0444,"dy":0.0017,"dx":0.0017,"nx":28,"ny":28,"refTime":"2025-04-12T09:00:00:Z","depth":0,"parameterNumber":3,"parameterNumberName":"V-component_of_WINDS"},"data":[0,0,0,0,0,0,0,0,0,0,0,0,0,0,0,0,0,0,0,0,0,0,0,0,0,0,0,0,0,0,0,0,0,0,0,0,0,0,0,0,0,0,0,0,0,0,0,0,0,0,0,0,0,0,0,0,0,0,3.8536,3.8536,0,3.8526,3.8526,3.8525,3.8539,3.8539,3.854,3.854,3.8526,3.8525,3.8524,0,0,0,0,0,0,0,0,0,0,0,0,0,3.8565,3.8565,3.8536,3.8536,3.8536,3.8526,3.8526,3.8525,3.8539,3.8539,3.854,3.854,3.8526,3.8525,3.8524,0,0,0,0,0,0,0,0,0,0,0,0,0,3.8553,3.8564,3.8536,3.8541,3.8542,3.8526,3.8526,3.8525,3.8539,3.8539,3.854,3.8541,3.8527,3.8525,3.8524,3.8501,0,0,3.852,3.852,0,0,0,0,0,0,0,0,3.8554,3.8552,3.8541,3.8541,3.8541,3.8534,3.8531,3.8517,3.8538,3.854,3.854,3.8541,3.8528,3.8527,3.8523,3.8501,3.85,3.852,3.8519,3.8519,3.8518,0,0,0,0,0,0,0,3.8555,3.8553,3.8532,3.8541,3.8541,3.8543,3.8543,3.8528,3.853,3.854,3.8541,3.8539,3.8528,3.8524,3.8523,3.85,3.852,3.8519,3.8518,3.8518,3.8459,3.8458,0,0,0,0,0,0,3.8555,3.8553,3.8532,3.8532,3.855,3.8542,3.8541,3.8536,3.853,3.853,3.8539,3.854,3.8526,3.8524,3.8522,3.8496,3.8519,3.8518,3.8517,3.846,3.8459,3.8458,0,0,0,0,0,0,3.8556,3.8553,3.8533,3.8543,3.854,3.8541,3.8535,3.8535,3.8531,3.8529,3.8529,3.8534,3.8526,3.8524,3.8507,3.8495,3.8517,3.8516,3.8461,3.846,3.8459,3.8442,0,0,0,0,0,0,3.8557,3.8553,3.8545,3.8543,3.854,3.8518,3.8534,3.8534,3.8529,3.8531,3.8525,3.8525,3.8527,3.8509,3.8506,3.8494,3.8515,3.8462,3.846,3.8459,3.8444,3.8441,3.8438,0,0,0,0,0,3.8558,3.854,3.8545,3.8542,3.853,3.8518,3.8516,3.8519,3.8528,3.852,3.8519,3.8525,3.8497,3.8507,3.8503,3.8491,3.8463,3.8461,3.8459,3.8445,3.8441,3.8438,0,0,0,0,0,0,3.854,3.854,3.8545,3.8526,3.8522,3.852,3.8509,3.8515,3.8507,3.8509,3.8513,3.8511,3.8493,3.849,3.8501,3.8469,3.8481,3.8479,3.8472,3.8468,3.8465,3.8466,3.8514,0,0,0,0,0,3.8534,3.8526,3.8525,3.8509,3.8507,3.8508,3.8503,3.8506,3.8502,3.8499,3.8497,3.8491,3.8481,3.8475,3.8465,3.8444,3.8443,3.8434,3.8431,3.8428,3.8426,3.8415,3.8411,3.8452,3.8452,3.8452,0,0,3.8522,3.8521,3.8514,3.8505,3.8502,3.8492,3.8507,3.8495,3.8488,3.8497,3.8482,3.848,3.8473,3.8454,3.8446,3.8451,3.8415,3.8426,3.8424,3.8423,3.8413,3.8409,3.8405,3.8451,3.8451,3.8452,0,0,3.8494,3.8492,3.8479,3.8476,3.8472,3.8473,3.847,3.8467,3.8467,3.8452,3.8459,3.845,3.8432,3.8428,3.8423,3.8395,3.8401,3.8392,3.8376,3.8366,3.8362,3.8359,3.835,3.8346,3.839,3.8389,3.8389,0,3.8478,3.8465,3.8471,3.8459,3.8455,3.8465,3.8451,3.8448,3.844,3.8437,3.8444,3.8423,3.8419,3.84,3.8393,3.8389,3.8385,3.8392,3.8363,3.836,3.8357,3.8348,3.8344,3.8388,3.8389,3.8389,3.8389,0,3.8446,3.8436,3.8426,3.842,3.8415,3.8402,3.8405,3.8399,3.8403,3.8404,3.8388,3.8384,3.8375,3.837,3.8373,3.8351,3.8355,3.8362,3.8374,3.8352,3.8344,3.834,3.8387,3.8387,3.8388,3.8388,0,0,3.8406,3.8405,3.8401,3.8399,3.8396,3.8388,3.8376,3.8368,3.8362,3.8357,3.8347,3.8333,3.834,3.8335,3.8337,3.8328,3.8306,3.8336,3.8336,3.8331,3.8282,3.8277,3.8273,3.831,3.831,3.8309,3.8283,0,3.8379,3.8359,3.8364,3.8344,3.8335,3.8345,3.8334,3.8331,3.8331,3.8323,3.8323,3.8314,3.8323,3.8321,3.8312,3.8311,3.8297,3.8313,3.83,3.83,3.8302,3.8268,3.8262,3.8238,3.8279,3.8279,3.8278,0,3.8344,3.8339,3.8318,3.8318,3.8314,3.8304,3.8298,3.8291,3.8287,3.8288,3.8283,3.8288,3.8275,3.8288,3.8271,3.8282,3.8277,3.8276,3.8275,3.8274,3.8288,3.8266,3.823,3.8226,3.8273,3.8273,3.8274,0,3.8317,3.8305,3.8292,3.8289,3.8288,3.8281,3.828,3.8277,3.8273,3.8267,3.8264,3.8256,3.8252,3.8245,3.8248,3.8257,3.823,3.8243,3.823,3.823,3.8224,3.8224,3.8187,3.8221,3.8221,3.8221,3.8221,0,3.8286,3.8273,3.828,3.8271,3.8257,3.8263,3.8249,3.8249,3.8246,3.8238,3.8245,3.8237,3.8241,3.8233,3.8234,3.822,3.8218,3.8218,3.8219,3.8217,3.8217,3.8214,3.8216,3.822,3.822,3.822,3.8221,0,3.8253,3.8258,3.8243,3.8244,3.8244,3.8233,3.8233,3.8225,3.8227,3.8216,3.8214,3.8216,3.8206,3.8209,3.8198,3.8199,3.8181,3.8184,3.8183,3.8184,3.8171,3.8173,3.813,3.8125,3.8162,3.8162,3.8162,0,3.8233,3.8224,3.8224,3.8219,3.8218,3.821,3.8206,3.8212,3.8207,3.8203,3.8195,3.8187,3.8181,3.8165,3.8165,3.8157,3.816,3.8146,3.8159,3.8158,3.816,3.8161,3.816,3.8143,3.8142,3.8142,3.8142,0,3.8197,3.82,3.8194,3.8189,3.8184,3.818,3.8177,3.8172,3.8178,3.8172,3.8163,3.8159,3.8149,3.814,3.8133,3.8132,3.8137,3.8138,3.8135,3.8133,3.8133,3.8133,3.8176,3.8139,3.8139,3.8139,3.8139,3.8139,3.817,3.8163,3.8162,3.8155,3.8154,3.8151,3.8144,3.8145,3.8138,3.8132,3.8135,3.8125,3.8122,3.8114,3.8111,3.8103,3.8109,3.8104,3.8103,3.8101,3.81,3.8135,3.8102,3.8102,3.8102,3.8102,3.8102,0,3.8135,3.8135,3.8129,3.8125,3.812,3.8128,3.8124,3.8119,3.8111,3.8108,3.8103,3.8093,3.8085,3.8085,3.8078,3.8072,3.8074,3.8069,3.807,3.807,3.8095,3.8099,3.8068,3.8068,3.8068,3.8068,3.8068,3.8068,3.8116,3.8104,3.8107,3.8094,3.8094,3.8086,3.8083,3.808,3.8079,3.8068,3.8062,3.8063,3.8061,3.8054,3.8047,3.8047,3.8044,3.8039,3.804,3.8064,3.8068,3.8071,3.8074,3.8038,3.8038,3.8015,3.8014,3.8014]}]]